Regional Weather Roundup
Issued by NWS

Home | Current Version | Previous Version | Graphics & Text | Print | Product List | Glossary On
Versions: 1 2 3 4 5 6 7 8 9 10 11 12 13 14 15 16 17 18 19 20 21 22 23 24 25 26 27 28 29 30 31 32 33 34 35 36 37 38 39 40 41 42 43 44 45 46 47 48 49 50
000
ASUS43 KOAX 210702
RWRNE

WEATHER ROUNDUP FOR NEBRASKA
NATIONAL WEATHER SERVICE OMAHA NE
100 AM CST WED FEB 21 2018

NOTES: SATELLITE DATA IS BEING USED TO AUGMENT CLOUD COVER ABOVE
       12000 FEET.
       "FAIR" INDICATES FEW OR NO CLOUDS BELOW 12,000 FEET WITH NO
       SIGNIFICANT WEATHER AND/OR OBSTRUCTIONS TO VISIBILITY.


NEZ001>004-019>022-054>056-210800-
NEBRASKA PANHANDLE

CITY           SKY/WX    TMP DP  RH WIND       PRES   REMARKS
SCOTTSBLUFF    CLEAR     -6 -11  79 CALM      30.27R
ALLIANCE       CLEAR    -20 -23  86 VRB5      30.26S WCI -33
CHADRON        CLEAR    -12 -19  71 W7        30.31R WCI -27
GORDON         FAIR      -6 -12  75 SW13      30.28R WCI -25
KIMBALL        CLEAR     -2  -8  76 W6        30.21S WCI -14
SIDNEY         CLEAR     -3  -7  82 S7        30.26R WCI -16
$$

NEZ057>060-069>072-079>082-210800-
SOUTHWEST NEBRASKA

CITY           SKY/WX    TMP DP  RH WIND       PRES   REMARKS
NORTH PLATTE   PTCLDY    -3  -8  79 NW3       30.41S
IMPERIAL       CLOUDY     7   0  73 NW6       30.35F WCI  -3
LEXINGTON      CLEAR      6  -1  74 NW8       30.43R WCI  -7
MCCOOK         PTCLDY     4  -1  80 NW8       30.42R WCI  -9
OGALLALA       PTCLDY    -4  -9  81 CALM      30.37R
$$

NEZ005>010-023>029-035>040-094-210800-
NORTH CENTRAL NEBRASKA

CITY           SKY/WX    TMP DP  RH WIND       PRES   REMARKS
VALENTINE      CLEAR    -11 -17  75 SW6       30.39R WCI -25
AINSWORTH      CLEAR     -4  -9  79 W7        30.39R WCI -18
BROKEN BOW     CLEAR      2  -5  72 VRB3      30.42R
O`NEILL        CLEAR     -9 -12  85 CALM      30.43R
ORD            CLEAR     -2  -7  79 NW5       30.45R WCI -12
THEDFORD       CLEAR     -5 -10  77 W5        30.39R WCI -16
$$

NEZ041-046>049-061>064-073>077-083>087-210800-
SOUTH CENTRAL NEBRASKA

CITY           SKY/WX    TMP DP  RH WIND       PRES   REMARKS
GRAND ISLAND   CLEAR      7   1  76 NW7       30.47R WCI  -5
AURORA         CLEAR      5   0  78 NW5       30.48R WCI  -4
HASTINGS       CLEAR      6   1  80 NW3       30.47R
HEBRON         CLOUDY    11   5  76 N8        30.49R WCI   0
HOLDREGE       CLOUDY     7   2  80 NW5       30.43S WCI  -1
KEARNEY        CLOUDY     7   1  76 NW7       30.46R WCI  -5
YORK           CLEAR      7   3  85 N6        30.48R WCI  -3
$$

NEZ011>018-030>034-042>045-210800-
NORTHEAST NEBRASKA

CITY           SKY/WX    TMP DP  RH WIND       PRES   REMARKS
NORFOLK        CLEAR      4  -1  80 W7        30.47R WCI  -8
ALBION         PTCLDY     2  -3  79 N5        30.47R WCI  -8
BLAIR          CLEAR     10   5  79 NW9       30.45S WCI  -2
COLUMBUS       CLEAR      6   2  83 NW8       30.50R WCI  -7
FREMONT        CLEAR      9   4  80 NW7       30.49R WCI  -2
TEKAMAH        CLEAR      9   3  77 NW8       30.51R WCI  -3
WAYNE          PTCLDY     4   0  81 NW3       30.48R
$$

NEZ050>053-065>068-078-088>093-210800-
SOUTHEAST NEBRASKA

CITY           SKY/WX    TMP DP  RH WIND       PRES   REMARKS
LINCOLN        CLEAR     10   4  76 N7        30.52R WCI  -1
OMAHA EPPLEY   CLEAR     11   5  77 N10       30.49R WCI  -3
BEATRICE       CLEAR     13   7  78 N14       30.47R WCI  -2
FALLS CITY     PTCLDY    14   8  77 N8        30.46R WCI   3
NEBRASKA CITY  CLOUDY    12   8  83 N9        30.47R WCI   0
PLATTSMOUTH    CLOUDY    12   6  79 NW10      30.48R WCI  -2
$$

NEZ044-045-051>053-067-210800-
OMAHA AREA

CITY           SKY/WX    TMP DP  RH WIND       PRES   REMARKS
OMAHA EPPLEY   CLEAR     11   5  77 N10       30.49R WCI  -3
BLAIR          CLEAR     10   5  79 NW9       30.45S WCI  -2
FREMONT        CLEAR      9   4  80 NW7       30.49R WCI  -2
MILLARD        CLEAR     13   6  72 N6        30.50R WCI   4
OFFUTT AFB     CLEAR     12   4  72 N10       30.48R WCI  -2
PLATTSMOUTH    CLOUDY    12   6  79 NW10      30.48R WCI  -2
WAHOO          FAIR      10   4  76 N7        30.50R WCI   0
$$



USA.gov is the U.S. government's official web portal to all federal, state and local government web resources and services.